{"data":{"norad_id":62510,"epoch":"2026-05-24T16:24:06.416640Z","epoch_age_seconds":95668,"freshness":"FRESH","line1":"1 62510U 25003Z   26144.68340760  .00008395  00000+0  31425-3 0  9997","line2":"2 62510  42.9997 219.8102 0001910 262.4842  97.5792 15.27580245 78179","mean_motion":15.27580245,"eccentricity":0.000191,"inclination_deg":42.9997,"raan_deg":219.8102,"arg_perigee_deg":262.4842,"mean_anomaly_deg":97.5792,"bstar":0.00031425,"rev_number":7817,"period_min":94.266733594738,"perigee_km":481.73787601739,"apogee_km":484.35884882583,"semimajor_km":6861.1853624216,"source":"CELESTRAK","updated_at":"2026-05-25T13:38:19.701292Z"}}